#timestamp,LO_Frequency,Hit,StdDev 
1578235275.8,286047018.6,P
1578235295.6,286047017.9,P
1578235315.5,286047017.4,P
1578235335.3,286047020.1,Y
1578235355.1,286047002.0,P
1578235375.9,286047002.0,N
1578235395.7,286047002.7,N
1578235415.6,286047000.1,N
1578235435.4,286047000.0,N
1578235455.2,286047002.0,N
1578235475.1,286047002.5,N
1578235476.0,286047002.5,N
1578235495.8,286047001.7,N
1578235515.6,286047003.2,N
1578235535.5,286047003.2,N
1578235555.3,286047002.9,N
1578235575.2,286047004.7,N
1578235595.9,286047009.0,N
1578235615.7,286047008.0,N
1578235635.6,286047008.3,N
1578235655.4,286047010.6,N
1578235675.2,286047008.9,N
1578235695.1,286047010.4,N
1578235696.0,286047010.4,N
1578235715.8,286047007.8,N
1578235735.7,286047010.0,N
1578235755.5,286047010.8,N
1578235775.3,286047010.1,N
1578235795.2,286047011.8,N
1578235815.0,286047011.8,N
1578235815.9,286047011.8,N
1578235835.8,286047013.5,Y
1578235855.6,286047003.3,P
1578235875.4,286047002.9,N
1578235895.3,286047005.6,P
1578235915.1,286047004.7,N
1578235916.0,286047004.7,Y
1578235935.8,286047002.2,P
1578235955.7,286047000.2,N
1578235975.5,286047002.5,N
1578235995.4,286047000.1,N
1578236015.2,286046998.1,N
1578236035.0,286047000.9,N
1578236035.9,286047000.9,N
1578236055.8,286047000.6,N
1578236075.6,286047000.8,N
1578236095.4,286047000.0,N
1578236115.3,286047000.0,N
1578236135.1,286047000.3,N
1578236155.9,286047000.3,N
1578236175.7,286047002.7,N
1578236195.5,286047002.6,N
1578236215.4,286047001.6,N
1578236235.2,286047001.8,N
1578236255.0,286047001.7,N
1578236255.9,286047001.7,N
1578236275.8,286047004.3,Y
1578236295.6,286047001.3,P
1578236315.5,286047003.1,P
1578236335.3,286047002.9,P
1578236355.1,286047005.5,Y
1578236375.9,286047001.3,P
1578236395.7,286047003.3,P
